Flag for U.S.A. Weather past 2 weeks in Barnstable, Massachusetts, U.S.A.

Now
28 °F

Overcast.


Feels Like: 18 °F
Forecast: 31 / 39 °F
Wind: 12 mph from South

Location: Barnstable Municipal-Boardman Airport

Current Time: Mar 3, 2015 at 7:38:04 PM

Latest Report: Mar 3, 2015 at 6:56 PM


Visibility: 10 mi

Pressure: 30.17 "Hg

Humidity: 66%

Dew point: 18 °F

Location of BarnstableLocation

Historic Weather in Barnstable — Graph

°F

Barnstable temperature yesterday

Maximum temperature yesterday: 37 °F (at 12:56 PM)
Minimum temperature yesterday: 25 °F (at 11:56 PM)
Average temperature yesterday: 32 °F

Past Weeks' High & Low Weather Summary

 TemperatureHumidityPressure
High40 °F (Feb 22, 1:56 AM)100% (Feb 21, 10:56 PM)30.73 "Hg (Feb 21, 10:56 PM)
Low-6 °F (Feb 21, 4:56 AM)32% (Feb 28, 3:56 PM)29.54 "Hg (Feb 19, 1:56 PM)
Average23 °F67%30.11 "Hg
* Reported Feb 16 5:56 PM — Mar 3 5:56 PM, Barnstable, Weather by CustomWeather, © 2015

Note: Actual official high and low records may vary slightly from our data, if they occured in-between our weather recording intervals... More about our weather records

Advertising

Barnstable weather history for previous 24 hours

 ConditionsComfort  
Time TempWeatherWind HumidityBarometerVisibility
5:56 PM
Tue, Mar 3
27 °FMostly cloudy.14 mph58%30.22 "Hg10 mi
4:56 PM27 °FPartly sunny.14 mph61%30.23 "Hg10 mi
3:56 PM27 °FPassing clouds.9 mph55%30.26 "Hg10 mi
2:56 PM27 °FSunny.9 mph49%30.29 "Hg10 mi
1:56 PM27 °FSunny.8 mph45%30.32 "Hg10 mi
12:56 PM27 °FSunny.9 mph41%30.35 "Hg10 mi
11:56 AM28 °FSunny.No wind37%30.38 "Hg10 mi
10:56 AM27 °FSunny.8 mph39%30.39 "Hg10 mi
9:56 AM26 °FSunny.7 mph40%30.38 "Hg10 mi
8:56 AM25 °FSunny.14 mph40%30.40 "Hg10 mi
7:56 AM23 °FSunny.9 mph48%30.37 "Hg10 mi
6:56 AM21 °FSunny.3 mph52%30.37 "Hg10 mi
5:56 AM22 °FClear.5 mph48%30.35 "Hg10 mi
4:56 AM23 °FClear.8 mph46%30.35 "Hg10 mi
3:56 AM22 °FClear.10 mph52%30.30 "Hg10 mi
2:56 AM24 °FClear.7 mph50%30.29 "Hg10 mi
1:56 AM24 °FClear.7 mph55%30.28 "Hg10 mi
12:56 AM24 °FPassing clouds.8 mph57%30.25 "Hg10 mi
11:56 PM
Mon, Mar 2
25 °FPassing clouds.7 mph55%30.23 "Hg10 mi
10:56 PM26 °FClear.10 mph50%30.20 "Hg10 mi
9:56 PM28 °FClear.9 mph47%30.17 "Hg10 mi
8:56 PM28 °FClear.9 mph49%30.14 "Hg10 mi
7:56 PM30 °FPassing clouds.10 mph47%30.12 "Hg10 mi
Weather by CustomWeather, © 2015

See weather overviewHow to use our weather pages